SCP
0 0 0 0 0 0 0 0 0 0 0 0 0 0 0 0 0 0 0 0 0 0 0 0 0 0 0 0 0 0 0 0 0 0 0 0 0 0 0 0 0 0 0
0 0 0 0 0 0 0 0 0 0 0 0 0 0 0 0 0 0 0 0 0 0 0 0 0 0 0 0 0 0 0 0 0 0 0 0 0 0 0 0 0 0 0
0 0 0 0 0 0 0 0 0 0 0 0 0 0 0 0 0 0 0 0 0 0 0 0 0 0 0 0 0 0 0 0 0 0 0 0 0 0 0 0 0 0 0
0 0 0 0 0 0 0 0 0 0 0 0 0 0 0 0 0 0 0 0 0 0 0 0 0 0 0 0 0 0 0 0 0 0 0 0 0 0 0 0 0 0 0
0 0 0 0 0 0 0 0 0 0 0 0 0 0 0 0 0 0 0 0 0 0 0 0 0 0 0 0 0 0 0 0 0 0 0 0 0 0 0 0 0 0 0
0 0 0 0 0 0 0 0 0 0 0 0 0 0 0 0 0 0 0 0 0 0 0 0 0 0 0 0 0 0 0 0 0 0 0 0 0 0 0 0 0 0 0
0 0 0 0 0 0 0 0 0 0 0 0 0 0 0 0 0 0 0 0 0 0 0 0 0 0 0 0 0 0 0 0 0 0 0 0 0 0 0 0 0 0 0
0 0 0 0 0 0 0 0 0 0 0 0 0 0 0 0 0 0 0 0 0 0 0 0 0 0 0 0 0 0 0 0 0 0 0 0 0 0 0 0 0 0 0
0 0 0 0 0 0 0 0 0 0 0 0 0 0 0 0 0 0 0 0 0 0 0 0 0 0 0 0 0 0 0 0 0 0 0 0 0 0 0 0 0 0 0
0 0 0 0 0 0 0 0 0 0 0 0 0 0 0 0 0 0 0 0 0 0 0 0 0 0 0 0 0 0 0 0 0 0 0 0 0 0 0 0 0 0 0
0 0 0 0 0 0 0 0 0 0 0 0 0 0 0 0 0 0 0 0 0 0 0 0 0 0 0 0 0 0 0 0 0 0 0 0 0 0 0 0 0 0 0
0 0 0 0 0 0 0 0 0 0 0 0 0 0 0 0 0 0 0 0 0 0 0 0 0 0 0 0 0 0 0 0 0 0 0 0 0 0 0 0 0 0 0
0 0 0 0 0 0 0 0 0 0 0 0 0 0 0 0 0 0 0 0 0 0 0 0 0 0 0 0 0 0 0 0 0 0 0 0 0 0 0 0 0 0 0
0 0 0 0 0 0 0 0 0 0 0 0 0 0 0 0 0 0 0 0 0 0 0 0 0 0 0 0 0 0 0 0 0 0 0 0 0 0 0 0 0 0 0
0 0 0 0 0 0 0 0 0 0 0 0 0 0 0 0 0 0 0 0 0 0 0 0 0 0 0 0 0 0 0 0 0 0 0 0 0 0 0 0 0 0 0
0 0 0 0 0 0 0 0 0 0 0 0 0 0 0 0 0 0 0 0 0 0 0 0 0 0 0 0 0 0 0 0 0 0 0 0 0 0 0 0 0 0 0
0 0 0 0 0 0 0 0 0 0 0 0 0 0 0 0 0 0 0 0 0 0 0 0 0 0 0 0 0 0 0 0 0 0 0 0 0 0 0 0 0 0 0
0 0 0 0 0 0 0 0 0 0 0 0 0 0 0 0 0 0 0 0 0 0 0 0 0 0 0 0 0 0 0 0 0 0 0 0 0 0 0 0 0 0 0
0 0 0 0 0 0 0 0 0 0 0 0 0 0 0 0 0 0 0 0 0 0 0 0 0 0 0 0 0 0 0 0 0 0 0 0 0 0 0 0 0 0 0
0 0 0 0 0 0 0 0 0 0 0 0 0 0 0 0 0 0 0 0 0 0 0 0 0 0 0 0 0 0 0 0 0 0 0 0 0 0 0 0 0 0 0
0 0 0 0 0 0 0 0 0 0 0 0 0 0 0 0 0 0 0 0 0 0 0 0 0 0 0 0 0 0 0 0 0 0 0 0 0 0 0 0 0 0 0
0 0 0 0 0 0 0 0 0 0 0 0 0 0 0 0 0 0 0 0 0 0 0 0 0 0 0 0 0 0 0 0 0 0 0 0 0 0 0 0 0 0 0
0 0 0 0 0 0 0 0 0 0 0 0 0 0 0 0 0 0 0 0 0 0 0 0 0 0 0 0 0 0 0 0 0 0 0 0 0 0 0 0 0 0 0
0 0 0 0 0 0 0 0 0 0 0 0 0 0 0 0 0 0 0 0 0 0 0 0 0 0 0 0 0 0 0 0 0 0 0 0 0 0 0 0 0 0 0
1 0 0 0 0 0 0 0 0 0 0 0 0 0 0 0 0 0 0 0 0 0 0 0 0 0 0 0 0 0 0 0 0 0 0 0 0 0 0 0 0 0 0
1 0 0 0 0 0 0 0 0 0 0 0 0 0 0 0 0 0 0 0 0 0 0 0 0 0 0 0 0 0 0 0 0 0 0 0 0 0 0 0 0 0 0
Wind_Speed
1 1 1 1 1 1 1 1 1 1 2 2 3 3 4 3 3 4 1 5 3 4 6 9 11 11 11 11 11 11 11 11 11 10 10 10 11 11 10 10 10 9 9
2 2 2 1 1 1 3 2 1 1 2 1 2 2 4 3 2 3 4 4 6 5 5 7 10 12 12 12 12 12 12 12 11 11 11 11 11 11 11 10 10 10 9
3 2 2 1 2 2 1 1 1 1 1 1 1 2 2 3 3 3 4 4 4 8 7 7 8 10 12 13 12 12 12 12 11 11 12 11 11 11 11 11 10 10 9
3 1 1 2 2 1 1 1 1 2 1 2 1 2 2 2 3 4 4 4 4 4 7 8 7 8 11 13 14 14 13 12 12 12 12 12 12 12 12 11 11 11 10
3 2 2 3 0 1 1 2 2 3 2 3 2 1 2 2 2 3 3 4 3 4 4 6 8 7 10 12 14 15 14 13 12 13 14 14 14 14 13 13 12 12 11
4 2 3 2 1 1 1 2 2 2 3 3 4 1 2 1 1 1 3 2 2 4 4 3 5 7 10 10 11 12 14 15 15 15 15 15 15 14 14 14 14 14 13
5 2 2 3 0 2 2 2 1 0 1 3 3 2 2 2 1 1 2 2 2 2 1 2 3 3 4 10 8 9 12 14 15 16 15 15 15 15 15 15 15 15 15
5 4 2 2 2 2 2 2 2 3 2 2 4 3 2 4 3 2 1 2 3 2 0 1 0 1 3 2 5 7 9 11 14 15 15 15 15 15 15 16 16 16 16
5 3 3 1 1 1 2 0 1 2 2 1 3 4 4 1 1 3 2 2 2 3 2 1 1 1 2 2 2 4 4 5 8 11 13 14 15 15 16 16 17 17 17
6 5 4 3 2 1 1 2 1 1 2 1 1 1 4 5 4 0 3 2 1 1 3 3 2 1 1 1 1 3 2 2 5 7 10 12 14 15 16 17 18 18 18
6 5 5 4 3 2 1 0 1 2 1 2 2 1 1 1 4 5 2 1 1 0 1 2 2 2 2 1 1 5 4 3 3 5 6 8 11 14 15 17 19 19 19
6 6 6 4 4 3 3 3 2 2 1 2 3 2 2 2 3 3 4 4 3 2 2 2 2 2 2 2 3 6 4 4 4 4 5 6 7 9 13 15 16 17 18
5 6 6 5 4 4 4 3 3 2 2 2 3 2 2 2 3 4 5 4 5 3 2 4 2 2 3 2 1 4 1 2 4 4 4 4 6 7 9 11 13 14 15
4 6 6 6 5 5 5 4 4 4 3 3 3 3 3 3 3 3 4 5 6 4 3 2 2 2 3 4 3 6 4 2 2 4 4 4 5 6 7 9 10 12 14
5 7 7 6 6 6 5 5 4 4 4 5 4 5 5 3 3 3 4 5 6 7 5 1 3 1 3 4 2 6 7 1 2 5 5 5 6 6 7 8 9 10 11
6 7 7 7 7 6 6 6 6 5 5 5 4 4 5 5 3 4 4 4 5 7 7 5 4 5 5 7 4 6 8 5 9 8 7 6 7 7 8 8 9 10 11
8 8 8 8 8 7 7 7 7 6 7 6 6 6 7 6 5 5 5 5 5 6 8 7 6 5 5 8 7 7 8 8 8 11 9 8 8 9 9 9 9 9 10
9 9 8 8 8 8 8 8 8 7 8 8 7 7 7 6 7 7 6 6 6 6 8 9 8 7 7 7 8 8 9 8 9 6 9 9 10 10 10 11 11 11 10
9 9 9 9 9 9 9 9 8 8 8 8 8 8 8 8 8 7 7 7 7 7 7 9 9 7 7 7 8 9 10 8 10 8 11 13 13 12 12 12 12 12 12
10 10 10 10 10 10 10 9 9 9 9 9 9 9 9 9 9 9 8 9 8 8 8 9 9 8 7 7 7 8 8 7 8 9 8 7 10 13 14 14 14 13 13
10 10 10 10 10 9 9 10 9 10 10 10 10 10 11 10 8 8 8 8 8 8 8 8 9 8 8 6 7 7 8 8 8 8 8 8 8 10 11 15 17 15 14
10 10 10 11 11 9 7 8 9 10 10 11 11 11 11 11 12 14 14 13 12 11 11 10 9 9 9 9 7 8 8 9 9 6 7 9 9 9 9 10 9 12 13
10 10 11 11 11 10 8 10 12 11 11 11 11 11 11 10 11 12 14 17 17 18 16 14 14 13 11 10 9 10 9 10 10 9 8 10 10 10 10 9 8 10 12
9 9 10 11 11 10 11 12 12 13 13 13 13 13 13 13 12 12 12 13 14 14 15 15 14 14 13 10 9 11 11 11 12 11 11 12 11 11 10 10 10 14 14
9 9 10 10 11 10 11 12 12 11 12 14 14 14 14 14 12 11 13 15 15 13 14 15 15 14 12 10 9 10 11 11 12 10 9 10 11 10 10 11 10 15 16
9 9 9 10 11 11 9 12 12 10 12 12 12 13 15 16 14 13 14 15 16 14 13 11 13 15 16 16 16 14 13 12 12 11 9 9 10 10 11 10 9 8 11
Wind_Direction
142 114 77 23 343 357 222 255 288 287 274 256 258 265 282 279 280 280 182 147 203 236 224 210 207 210 211 210 208 207 206 202 194 188 187 185 183 181 181 180 178 176 173
116 121 126 71 33 7 15 341 348 297 290 304 274 280 281 289 274 279 278 189 191 211 223 218 213 210 212 214 214 215 212 211 202 195 193 193 190 189 189 188 186 184 182
119 118 103 113 48 37 48 337 327 291 276 269 278 291 273 282 292 280 279 281 223 197 206 217 218 212 210 213 217 219 218 215 209 203 200 198 195 194 193 192 192 188 186
122 131 102 78 56 2 358 20 310 314 341 306 305 303 294 261 261 268 263 255 269 253 200 199 212 213 214 215 216 217 219 219 214 211 208 204 202 200 198 197 196 193 191
130 129 82 72 42 20 3 336 37 329 340 333 296 256 285 274 279 269 282 274 262 260 253 179 194 211 218 220 220 218 216 218 220 220 217 213 210 206 203 201 199 197 196
138 131 116 95 4 51 40 36 23 1 324 323 306 334 297 322 293 338 286 276 269 263 256 248 211 205 210 219 224 220 216 220 220 225 225 221 216 212 208 206 204 201 201
141 149 116 120 28 69 33 25 331 204 334 337 286 244 173 151 69 50 356 338 354 320 284 240 242 250 200 199 209 218 218 221 222 225 226 226 223 217 212 211 209 206 205
163 166 151 161 119 113 102 57 354 330 17 356 317 286 213 167 163 90 57 44 15 5 9 84 67 226 261 215 173 204 220 224 226 224 223 225 227 225 219 216 213 210 208
176 168 175 179 158 225 112 86 327 336 342 21 1 326 312 6 112 141 93 57 25 10 21 45 50 13 275 247 202 172 208 227 232 229 224 225 224 224 225 222 218 215 212
182 181 186 186 209 227 142 210 87 312 306 327 99 7 353 357 311 220 173 139 104 16 14 349 21 49 352 321 79 61 41 272 247 238 229 225 224 223 226 227 225 222 218
188 188 191 194 199 215 176 274 152 290 293 324 333 332 356 247 273 292 303 306 259 244 358 317 340 342 6 355 333 53 25 343 290 262 247 233 228 226 226 229 232 230 226
189 188 195 197 204 205 187 203 208 203 300 337 317 320 308 308 310 308 298 286 295 303 316 308 279 294 315 313 41 40 16 5 337 290 260 244 237 233 233 232 233 235 233
189 182 194 196 202 198 201 205 210 238 224 234 262 286 307 309 314 308 302 306 304 288 255 246 249 281 286 303 25 14 200 25 350 330 294 259 244 239 237 234 233 234 237
193 171 189 196 200 199 202 203 223 214 219 234 250 277 277 273 285 287 297 304 296 287 251 266 290 263 310 297 26 302 260 128 335 322 308 284 263 253 247 241 237 235 235
185 180 192 196 197 199 207 213 231 225 221 234 231 219 248 260 257 271 277 287 297 302 303 265 261 269 286 296 319 291 289 188 285 289 289 286 276 263 255 251 245 241 238
192 189 196 198 198 199 204 219 224 212 226 232 245 257 258 259 256 256 262 266 271 285 293 303 293 293 317 306 267 281 280 250 239 244 255 268 273 270 260 254 251 245 242
194 200 201 203 204 205 205 214 235 219 227 233 233 234 241 261 264 263 254 257 260 267 277 285 288 286 278 281 292 286 276 270 256 210 223 248 260 264 260 256 253 250 246
200 203 205 207 210 211 210 216 226 227 230 235 237 238 243 241 242 258 263 263 263 267 271 282 287 284 277 275 274 278 276 270 274 214 206 234 248 253 255 253 252 250 249
205 207 209 213 216 216 216 220 226 231 234 237 239 240 243 245 246 249 251 260 263 259 262 273 278 283 279 273 276 270 268 266 271 254 215 223 232 240 246 248 249 247 246
205 210 213 218 220 220 222 224 226 230 235 239 240 242 244 244 245 249 248 249 257 266 263 264 270 274 271 269 266 270 271 257 260 271 267 252 229 224 234 239 240 241 242
208 211 217 221 222 223 224 225 230 231 233 239 241 241 243 244 252 252 259 257 256 257 264 266 269 271 272 276 274 277 280 281 269 263 267 264 249 240 230 228 229 232 234
212 213 219 224 225 228 204 208 235 246 242 242 245 245 245 230 230 228 240 251 259 259 263 270 271 273 276 276 276 277 279 278 277 268 267 269 267 264 259 255 224 206 219
209 216 222 227 232 232 199 204 219 244 250 249 249 248 250 247 229 237 228 226 237 241 246 257 267 270 275 272 275 273 269 275 281 289 283 274 271 266 262 256 207 206 221
214 220 226 231 235 232 203 209 214 234 249 251 250 249 250 255 247 243 248 244 242 236 231 233 248 257 261 269 266 266 273 270 265 257 256 266 268 267 267 263 220 209 222
219 223 227 233 238 239 210 211 215 240 243 247 249 249 249 250 243 227 244 253 254 253 241 232 239 250 260 262 260 263 262 263 265 263 249 255 265 268 268 264 248 211 217
227 233 233 234 239 243 219 207 211 244 251 253 251 249 242 242 244 218 237 248 253 254 258 246 228 234 243 242 228 237 251 257 263 267 261 255 262 268 270 262 257 244 228